Starlink 32041

operational
NORAD ID: 60202 Int'l Des: 2024-124 Owner: SPXS Country: US Constellation: starlink
LEOCIRCULAR

About Starlink 32041

Description loading...

Live Position

Loading 3D Globe...

Upcoming Passes

Altitude History

Altitude vs Time

uPlot chart will show altitude changes over time

Two-Line Element Set

1 60202U 24124V 26037.19609655 .00002852 00000-0 10857-3 0 9993
2 60202 53.1596 108.7945 0002500 113.8373 246.2890 15.30147187 90678
Epoch: Feb 6, 2026 • Age: 4 hours

Current Status

Altitude 474.4 km
Velocity 7.63 km/s
Sub-Earth Point 11.24°N, 14.59°E
Launch Date Jul 3, 2024
Age 1.5 years
Type internet

Technical Details

Classification Payload
Mass 730.00 kg
Dry Mass 700.00 kg
Total Mass 730.00 kg
Length 0.30 m
Diameter 4.10 m
Span 29.00 m
Shape Box + pan
Manufacturer SPXS
Bus Type Starlink V2M
Phase Status In Orbit
Owner/State SPXS/US

Large Constellations

Loading constellations...